#timestamp,LO_Frequency,Hit,StdDev 
1586678415.7,286047000.5,N
1586678435.5,286047001.8,N
1586678455.4,286047001.8,N
1586678475.2,286046998.7,N
1586678495.1,286046996.5,N
1586678496.0,286046996.5,N
1586678515.8,286047000.4,N
1586678535.6,286046998.5,N
1586678555.5,286047000.2,N
1586678575.3,286047001.0,N
1586678595.2,286047002.1,N
1586678615.0,286047000.1,N
1586678615.9,286047000.1,N
1586678635.8,286047001.6,N
1586678655.6,286046999.0,N
1586678675.4,286046996.9,N
1586678695.3,286046999.0,N
1586678715.1,286046999.5,N
1586678735.8,286046997.7,N
1586678755.7,286046995.7,N
1586678775.5,286046996.5,N
1586678795.4,286046998.0,N
1586678815.2,286046998.5,N
1586678835.0,286047000.5,N
1586678835.9,286047000.5,N
1586678855.8,286047001.4,N
1586678875.6,286047001.4,N
1586678895.5,286047003.1,N
1586678915.3,286047003.3,N
1586678935.1,286047001.8,N
1586678955.9,286046998.7,N
1586678975.7,286046998.3,N
1586678995.5,286046998.6,N
1586679015.4,286046998.2,N
1586679035.2,286046997.0,N
1586679055.1,286046995.4,N
1586679056.0,286046995.4,N
1586679075.8,286046997.8,N
1586679095.6,286046997.5,N
1586679115.5,286046995.4,N
1586679135.3,286046995.3,N
1586679155.1,286046997.7,N
1586679175.9,286046998.5,N
1586679195.7,286047004.3,N
1586679215.6,286047002.5,N
1586679235.4,286047000.7,N
1586679255.2,286047000.3,N
1586679275.1,286047001.9,N
1586679276.0,286047001.9,N
1586679295.8,286047000.1,N
1586679315.7,286047000.5,N
1586679335.5,286047000.4,N
1586679355.3,286047001.0,N
1586679375.2,286047000.3,N
1586679395.0,286047002.4,N
1586679395.9,286047002.4,N
1586679415.7,286047000.2,N
1586679435.6,286046998.8,N
1586679455.4,286046998.1,N
1586679475.3,286047002.7,N
1586679495.1,286047002.1,N
1586679515.8,286047001.2,N
1586679535.7,286047000.7,N
1586679555.5,286046998.3,N
1586679575.4,286046999.2,N
1586679595.2,286047001.0,N
1586679615.0,286046998.4,N
1586679615.9,286046998.4,N
1586679635.8,286046998.2,N
1586679655.6,286046998.2,N
1586679675.4,286046996.6,N
1586679695.3,286046999.4,N
1586679715.1,286046999.4,N
1586679735.9,286047000.1,N
1586679755.7,286047000.0,N
1586679775.5,286046999.5,N
1586679795.4,286046998.8,N
1586679815.2,286046999.1,N
1586679835.1,286046998.4,N
1586679836.0,286046998.4,N
1586679855.8,286046999.6,N
1586679875.7,286046995.3,Y
1586679895.5,286046993.4,P
1586679915.3,286046993.5,N
1586679935.2,286046993.7,N
1586679955.0,286046996.0,N
1586679955.9,286046996.0,N
1586679975.8,286046995.0,N
1586679995.6,286046993.8,Y
1586680015.4,286047000.6,P
1586680035.3,286047001.0,N
1586680055.1,286046999.4,N
1586680075.9,286046997.3,N
1586680095.7,286046999.6,N
1586680115.5,286046996.6,N
1586680135.4,286046999.2,N
1586680155.2,286046998.1,N
1586680175.1,286046999.8,N
1586680176.0,286046999.8,N
1586680195.8,286047002.1,N
1586680215.6,286047000.0,N
1586680235.5,286046999.1,N
1586680255.3,286046996.9,N
1586680275.1,286046997.1,N
1586680295.9,286046999.4,N
1586680315.7,286047001.1,N
1586680335.6,286046999.4,N
1586680355.4,286046996.7,N
1586680375.2,286046997.2,N
1586680395.1,286046997.9,N
1586680396.0,286046997.9,N
1586680415.8,286046997.6,N
1586680435.7,286046995.0,Y
1586680455.5,286046995.3,P
1586680475.3,286046995.8,N
1586680495.2,286046995.1,P
1586680515.0,286046997.4,N
1586680515.9,286046997.4,N
1586680535.7,286046997.8,N
1586680555.6,286046994.2,Y
1586680575.4,286046997.1,P
1586680595.3,286046999.0,P
1586680615.1,286046999.1,N
1586680635.8,286046999.6,N
1586680655.7,286046996.7,N
1586680675.5,286046997.5,N
1586680695.4,286046995.6,Y
1586680715.2,286046995.0,P
1586680735.0,286046996.8,N
1586680735.9,286046996.8,N
1586680755.8,286046998.0,N
1586680775.6,286046997.4,N
1586680795.5,286046997.8,N
1586680815.3,286046997.3,N
1586680835.1,286046997.8,N
1586680855.9,286046993.3,Y
1586680875.7,286046999.4,P
1586680895.6,286046999.2,N
1586680915.4,286046997.1,N
1586680935.2,286046997.1,N
1586680955.1,286046996.7,Y
1586680956.0,286046996.7,P
1586680975.8,286047000.5,N
1586680995.7,286046999.9,N
1586681015.5,286047000.2,N
1586681035.3,286047002.4,N
1586681055.2,286047002.0,N
1586681075.0,286047002.6,N
1586681075.9,286047002.6,N
1586681095.7,286047002.7,N
1586681115.6,286047001.2,N
1586681135.4,286046998.5,N
1586681155.3,286047000.9,N
1586681175.1,286046998.9,N
1586681195.8,286046999.0,N
1586681215.7,286046999.2,N
1586681235.5,286047000.3,N
1586681255.4,286047004.4,N
1586681275.2,286047001.3,N
1586681295.0,286046999.7,N
1586681295.9,286046999.7,N
1586681315.8,286047000.3,N
1586681335.6,286047002.6,N
1586681355.5,286047002.1,N
1586681375.3,286047001.7,N
1586681395.1,286047001.9,N
1586681415.9,286047001.7,N
1586681435.7,286047007.9,Y
1586681455.6,286047020.7,P
1586681475.4,286047033.2,P
1586681495.2,286047025.3,N
1586681515.1,286047021.0,N
1586681516.0,286047021.0,N
1586681535.8,286047017.4,N
1586681555.6,286047014.1,N
1586681575.5,286047012.6,N
1586681595.3,286047012.0,N
1586681615.2,286047008.4,N
1586681635.9,286047009.2,N
1586681655.7,286047006.9,N
1586681675.6,286047007.0,N
1586681695.4,286047006.4,N
1586681715.2,286047006.5,N
1586681735.1,286047006.6,N
1586681736.0,286047006.6,N
1586681755.8,286047005.0,N
1586681775.7,286047007.0,N
1586681795.5,286047006.9,N
1586681815.3,286047008.7,N
1586681835.2,286047009.2,N
1586681855.0,286047006.1,N
1586681855.9,286047006.1,N
1586681875.8,286047009.1,N
1586681895.6,286047007.1,N
1586681915.4,286047009.2,N
1586681935.3,286047006.4,N
1586681955.1,286047006.6,N
1586681975.8,286047005.1,N
1586681995.7,286047007.5,N
